Location: Tel Aviv
(32.0670°N, 34.7670°E)
Time: 23:14:51
(UTC+03:00)

Envisat - Visible Passes

Search period start: 16 July 2024 00:00
Search period end: 26 July 2024 00:00
Orbit: 762 x 764 km, 98.3° (Epoch: 16 July)

Date Brightness Start Highest point End Pass type
(mag) Time Alt. Az. Time Alt. Az. Time Alt. Az.
16 Jul 2.9 03:58:35 10° N 04:03:39 77° WNW 04:06:06 31° SSW visible
17 Jul 3.9 03:21:27 10° NNE 03:26:15 42° E 03:28:13 29° SSE visible
17 Jul 4.6 05:01:30 10° NNW 05:04:50 18° WNW 05:08:08 10° WSW visible
18 Jul 5.2 02:45:25 10° NE 02:48:41 17° E 02:50:20 15° ESE visible
18 Jul 3.5 04:22:59 10° N 04:27:45 42° WNW 04:30:29 23° SW visible
19 Jul 3.0 03:45:24 10° NNE 03:50:29 78° ESE 03:52:36 36° S visible
20 Jul 4.4 03:08:34 10° NE 03:13:02 31° E 03:14:43 25° SE visible
20 Jul 4.3 04:47:47 10° NNW 04:51:46 24° WNW 04:54:52 14° WSW visible
21 Jul 5.5 02:33:26 10° ENE 02:35:23 12° E 02:36:50 11° ESE visible
21 Jul 3.1 04:09:39 10° N 04:14:38 58° WNW 04:16:59 30° SW visible
22 Jul 3.4 03:32:18 10° NNE 03:37:17 56° E 03:39:06 36° SSE visible
22 Jul 4.9 05:13:16 10° NW 05:15:42 14° WNW 05:18:08 10° W visible
23 Jul 4.8 02:55:49 10° NE 02:59:46 23° E 03:01:12 20° ESE visible
23 Jul 3.9 04:34:13 10° N 04:38:41 32° WNW 04:41:21 20° WSW visible
24 Jul 2.9 03:56:23 10° N 04:01:28 80° WNW 04:03:27 38° SSW visible
25 Jul 4.0 03:19:17 10° NNE 03:24:04 41° E 03:25:34 33° SE visible
25 Jul 4.6 04:59:15 10° NNW 05:02:40 18° WNW 05:05:43 11° WSW visible
